Location: Colonia Mina de C?rbuni
(46.1667°N, 22.7167°E)
Time: 09:31:40
(UTC+00:00)

Vanguard 1 - Pass Details

Date: 16 April 2024
Orbit: 652 x 3825 km, 34.2° (Epoch: 29 May)

Event Time Altitude Azimuth Distance (km) Brightness Sun altitude
Exits shadow 01:30:35 - 192° (SSW) 7,126 14.0 -20.5°
Reaches altitude 10° 01:33:10 10° 187° (S) 6,724 13.9 -20.2°
Maximum altitude 01:46:47 22° 147° (SSE) 5,013 13.6 -18.3°
Drops below altitude 10° 01:57:04 10° 105° (ESE) 5,015 14.2 -16.9°
Sets 02:01:30 0° 90° (E) 5,532 14.8 -16.3°
